This is the latest recevied weather packets stored in our database for station/object IQ5KG. If no packets are shown the sender has not sent any weather packets the latest 10 day(s).
| Time | Temp. | Humidity | Pressure | Rain* | Wind** | Luminosity | Snow |
|---|---|---|---|---|---|---|---|
| 1777345286 | 12.22° C | 76% | 1016.5 hPa | 0 mm | - | - | - |
| 1777344386 | 12.22° C | 79% | 1016.6 hPa | 0 mm | - | - | - |
| 1777343486 | 12.78° C | 84% | 1016.7 hPa | 0 mm | - | - | - |
| 1777342587 | 12.78° C | 83% | 1017 hPa | 0 mm | - | - | - |
| 1777341687 | 12.78° C | 83% | 1016.9 hPa | 0 mm | - | - | - |
| 1777340786 | 12.78° C | 79% | 1017.1 hPa | 0 mm | - | - | - |
| 1777339886 | 12.78° C | 77% | 1016.9 hPa | 0 mm | - | - | - |
| 1777338986 | 12.78° C | 76% | 1016.9 hPa | 0 mm | - | - | - |
| 1777338086 | 12.78° C | 77% | 1016.8 hPa | 0 mm | - | - | - |
| 1777337184 | 12.78° C | 77% | 1017.2 hPa | 0 mm | - | - | - |
| 1777336284 | 13.33° C | 77% | 1017.2 hPa | 0 mm | - | - | - |
| 1777335384 | 13.33° C | 75% | 1017.5 hPa | 0 mm | - | - | - |
| 1777334485 | 13.33° C | 73% | 1017.5 hPa | 0 mm | - | - | - |
| 1777333584 | 13.33° C | 72% | 1017.7 hPa | 0 mm | - | - | - |
| 1777332685 | 13.33° C | 73% | 1017.6 hPa | 0 mm | - | - | - |
| 1777331784 | 13.89° C | 72% | 1017.7 hPa | 0 mm | - | - | - |
| 1777330885 | 13.89° C | 73% | 1017.7 hPa | 0 mm | - | - | - |
| 1777329984 | 13.33° C | 69% | 1017.5 hPa | 0 mm | - | - | - |
| 1777329083 | 13.89° C | 69% | 1017.3 hPa | 0 mm | - | - | - |
| 1777328184 | 13.89° C | 70% | 1017.4 hPa | 0 mm | - | - | - |
| 1777327284 | 13.89° C | 76% | 1017.6 hPa | 0 mm | - | - | - |
| 1777326384 | 14.44° C | 74% | 1017.6 hPa | 0 mm | - | - | - |
| 1777325663 | 14.44° C | 75% | 1017.7 hPa | 0 mm | - | - | - |
| 1777324763 | 15° C | 73% | 1017.4 hPa | 0 mm | - | - | - |
| 1777323862 | 15° C | 71% | 1017.6 hPa | 0 mm | - | - | - |
* Rain latest hour (hover to see other rain measurements)
** Current wind speed in m/s (hover to see current wind gust speed)